Flock 4g-4

operational
NORAD ID: 62659 Int'l Des: 2025-009 Owner: PLAN Country: US Constellation: planet
LEOCIRCULARRETROGRADESSO

About Flock 4g-4

Description loading...

Live Position

Loading 3D Globe...

Upcoming Passes

Altitude History

Altitude vs Time

uPlot chart will show altitude changes over time

Two-Line Element Set

1 62659U 25009BC 25314.48430062 .00012933 00000-0 54263-3 0 9997
2 62659 97.4157 32.7169 0003195 41.5656 318.5824 15.23606486103147
Epoch: Nov 10, 2025 • Age: 27 hours

Current Status

Altitude 510.2 km
Velocity 7.61 km/s
Sub-Earth Point -40.83°S, 135.68°E
Launch Date Jan 14, 2025
Age 0.8 years
Type earth observation

Technical Details

Classification Payload
Mass 5.70 kg
Dry Mass 5.70 kg
Total Mass 5.70 kg
Length 0.30 m
Diameter 0.10 m
Span 0.30 m
Shape Box+2 pan
Manufacturer PLAN
Bus Type Cubesat 3U
Phase Status In Orbit
Owner/State PLAN/US

Large Constellations

Loading constellations...